Weather History for San Angelo, TX

Change the Weather History Date:

Friday, October 11, 2013

  Actual Average Record
Temperature  
Mean Temperature 78 °F 68 °F  
Max Temperature 89 °F 80 °F 97 °F (1921)
Min Temperature 66 °F 55 °F 37 °F (1919)
Degree Days  
Heating Degree Days 0 2  
Month to date heating degree days 10 14  
Since 1 July heating degree days 10 23  
Cooling Degree Days 13 4  
Month to date cooling degree days 84 61  
Year to date cooling degree days 2798 2426  
Growing Degree Days 28 (Base 50)    
Moisture  
Dew Point 59 °F    
Average Humidity 56    
Maximum Humidity 87    
Minimum Humidity 24    
Precipitation  
Precipitation 0.00 in 0.09 in 0.96 in (2003)
Month to date precipitation 0.02 0.96  
Year to date precipitation 16.40 17.49  
Snow  
Snow 0.00 in 0.00 in 0.00 in (2002)
Month to date snowfall 0.0 0.0  
Since 1 July snowfall 0.0 0.0  
Snow Depth 0.00 in    
Sea Level Pressure  
Sea Level Pressure 29.82 in    
Wind  
Wind Speed 9 mph (SSW)    
Max Wind Speed 20 mph    
Max Gust Speed 26 mph    
Visibility 10 miles    
Events      
T = Trace of Precipitation, MM = Missing Value Source: NWS Daily Summary

Daily Weather History Graph

Daily Weather History Graph

Search for Another Location

Airport:

Trip Planner

Search our weather history database for the weather conditions in past years. The results will help you decide how hot, cold, wet, or windy it might be!

Date:

Astronomy

Oct. 11, 2013 Rise Set
Actual Time 7:42 AM CDT 7:14 PM CDT
Civil Twilight 7:18 AM CDT 7:38 PM CDT
Nautical Twilight 6:49 AM CDT 8:06 PM CDT
Astronomical Twilight 6:21 AM CDT 8:34 PM CDT
Moon 2:14 PM CDT (10/11) 12:08 AM CDT (10/11)
Length of Visible Light 12h 20m
Length of Day
11h 32m
Waxing Crescent, 47% of the Moon is Illuminated
Oct 11
Waxing Crescent
Oct 11
First Quarter
Oct 18
Full
Oct 26
Last Quarter
Nov 3
New

Hourly Weather History & Observations

Time (CDT) Temp. Heat Index Dew Point Humidity Pressure Visibility Wind Dir Wind Speed Gust Speed Precip Events Conditions
12:51 AM 71.1 °F - 57.0 °F 61% 29.79 in 10.0 mi South 8.1 mph - N/A   Clear
1:51 AM 71.1 °F - 57.0 °F 61% 29.78 in 10.0 mi South 10.4 mph - N/A   Clear
2:51 AM 70.0 °F - 60.1 °F 71% 29.77 in 10.0 mi South 11.5 mph 18.4 mph N/A   Clear
3:51 AM 70.0 °F - 62.1 °F 76% 29.76 in 10.0 mi South 13.8 mph 21.9 mph N/A   Clear
4:51 AM 70.0 °F - 64.0 °F 81% 29.76 in 10.0 mi South 15.0 mph 23.0 mph N/A   Partly Cloudy
5:08 AM 69.8 °F - 62.6 °F 78% 29.86 in 10.0 mi SW 8.1 mph 24.2 mph N/A   Mostly Cloudy
5:51 AM 71.1 °F - 64.0 °F 78% 29.82 in 10.0 mi SW 12.7 mph 17.3 mph N/A   Overcast
6:51 AM 70.0 °F - 64.0 °F 81% 29.83 in 10.0 mi SSW 8.1 mph - N/A   Scattered Clouds
7:51 AM 68.0 °F - 64.0 °F 87% 29.85 in 10.0 mi SW 3.5 mph - N/A   Clear
8:51 AM 71.1 °F - 64.9 °F 81% 29.87 in 10.0 mi SW 6.9 mph - N/A   Clear
9:51 AM 75.0 °F - 66.0 °F 73% 29.88 in 10.0 mi SSW 13.8 mph 21.9 mph N/A   Clear
10:51 AM 78.1 °F - 66.0 °F 66% 29.88 in 10.0 mi SW 16.1 mph - N/A   Scattered Clouds
11:51 AM 81.0 °F 82.5 °F 64.0 °F 56% 29.88 in 10.0 mi SSW 12.7 mph - N/A   Partly Cloudy
12:51 PM 82.9 °F 84.0 °F 63.0 °F 51% 29.86 in 10.0 mi WSW 11.5 mph 18.4 mph N/A   Scattered Clouds
1:51 PM 84.9 °F 85.4 °F 62.1 °F 46% 29.83 in 10.0 mi SSW 11.5 mph - N/A   Clear
3:51 PM 88.0 °F - 51.1 °F 28% 29.78 in 10.0 mi West 11.5 mph - N/A   Clear
4:51 PM 88.0 °F - 46.9 °F 24% 29.78 in 10.0 mi West 4.6 mph - N/A   Clear
5:51 PM 87.1 °F - 50.0 °F 28% 29.78 in 10.0 mi SSW 4.6 mph - N/A   Clear
6:51 PM 82.9 °F - 52.0 °F 34% 29.79 in 10.0 mi South 3.5 mph - N/A   Clear
7:51 PM 79.0 °F - 53.1 °F 40% 29.81 in 10.0 mi South 5.8 mph - N/A   Clear
8:51 PM 73.0 °F - 54.0 °F 51% 29.83 in 10.0 mi South 4.6 mph - N/A   Clear
9:51 PM 70.0 °F - 55.9 °F 61% 29.84 in 10.0 mi South 5.8 mph - N/A   Clear
10:51 PM 69.1 °F - 57.0 °F 65% 29.85 in 10.0 mi South 5.8 mph - N/A   Clear
11:51 PM 72.0 °F - 61.0 °F 68% 29.85 in 10.0 mi South 8.1 mph - N/A   Clear